Total_Precipitation_Accumulation
0.08 0.09 0.10 0.11 0.07 0.04 0.02 0.01 0.00 0.00 0.00 0.00 0.01 0.00 0.00 0.01 0.03 0.08 0.07 0.05 0.05 0.08 0.16 0.31 0.42 0.51 0.56 0.56 0.54 0.49 0.48 0.50 0.55 0.57 0.52 0.53 0.56 0.58 0.64 0.63 0.66 0.72 0.78 0.83 0.80 0.77 0.77 0.75 0.75
0.09 0.13 0.15 0.15 0.07 0.03 0.02 0.01 0.00 0.00 0.01 0.00 0.01 0.01 0.01 0.01 0.02 0.03 0.06 0.04 0.03 0.06 0.12 0.22 0.38 0.49 0.54 0.56 0.55 0.51 0.47 0.46 0.49 0.54 0.55 0.58 0.62 0.67 0.65 0.67 0.70 0.74 0.80 0.80 0.84 0.82 0.79 0.76 0.72
0.15 0.19 0.20 0.16 0.06 0.02 0.01 0.01 0.00 0.01 0.01 0.01 0.01 0.01 0.01 0.02 0.02 0.03 0.03 0.03 0.04 0.06 0.11 0.21 0.39 0.50 0.56 0.61 0.61 0.55 0.53 0.52 0.52 0.57 0.59 0.65 0.71 0.74 0.69 0.71 0.72 0.74 0.76 0.74 0.76 0.79 0.74 0.69 0.63
0.22 0.29 0.25 0.14 0.04 0.01 0.01 0.01 0.00 0.01 0.01 0.01 0.01 0.02 0.02 0.02 0.03 0.03 0.04 0.03 0.04 0.08 0.13 0.22 0.39 0.51 0.58 0.65 0.71 0.66 0.59 0.59 0.60 0.65 0.69 0.72 0.73 0.74 0.74 0.71 0.64 0.65 0.68 0.70 0.70 0.71 0.70 0.69 0.66
0.31 0.31 0.23 0.11 0.03 0.02 0.01 0.01 0.01 0.02 0.03 0.02 0.02 0.03 0.05 0.04 0.03 0.05 0.06 0.06 0.06 0.09 0.16 0.24 0.41 0.53 0.60 0.68 0.74 0.72 0.68 0.67 0.67 0.71 0.75 0.76 0.77 0.75 0.73 0.71 0.64 0.59 0.56 0.61 0.66 0.68 0.70 0.74 0.68
0.41 0.31 0.16 0.06 0.02 0.01 0.01 0.02 0.02 0.03 0.03 0.04 0.06 0.06 0.06 0.07 0.08 0.09 0.09 0.10 0.09 0.11 0.17 0.27 0.46 0.57 0.62 0.69 0.78 0.78 0.78 0.77 0.76 0.77 0.83 0.84 0.82 0.79 0.73 0.68 0.64 0.62 0.55 0.55 0.59 0.64 0.73 0.77 0.69
0.42 0.28 0.12 0.03 0.02 0.01 0.01 0.02 0.03 0.04 0.05 0.06 0.08 0.09 0.07 0.11 0.12 0.13 0.14 0.15 0.15 0.16 0.21 0.30 0.43 0.57 0.68 0.78 0.84 0.84 0.88 0.90 0.87 0.86 0.92 0.90 0.85 0.83 0.78 0.71 0.64 0.61 0.59 0.58 0.56 0.58 0.67 0.73 0.69
0.43 0.36 0.16 0.05 0.03 0.03 0.01 0.02 0.03 0.05 0.06 0.06 0.08 0.10 0.10 0.11 0.13 0.17 0.21 0.23 0.24 0.24 0.27 0.35 0.44 0.56 0.67 0.79 0.83 0.85 0.90 0.98 0.98 0.99 0.89 0.78 0.80 0.85 0.78 0.65 0.62 0.60 0.59 0.60 0.56 0.54 0.56 0.59 0.59
0.56 0.52 0.22 0.07 0.04 0.03 0.02 0.02 0.03 0.05 0.06 0.08 0.07 0.09 0.11 0.12 0.17 0.23 0.33 0.37 0.39 0.38 0.38 0.42 0.50 0.62 0.74 0.82 0.78 0.85 0.94 0.98 0.96 0.93 0.76 0.71 0.73 0.71 0.69 0.57 0.54 0.60 0.61 0.61 0.61 0.62 0.57 0.51 0.43
0.71 0.54 0.21 0.08 0.06 0.05 0.05 0.05 0.05 0.06 0.08 0.09 0.08 0.10 0.13 0.18 0.26 0.29 0.35 0.41 0.45 0.47 0.47 0.50 0.56 0.69 0.82 0.84 0.84 0.95 0.98 0.93 0.86 0.80 0.76 0.72 0.73 0.68 0.62 0.56 0.53 0.59 0.61 0.63 0.67 0.68 0.62 0.54 0.44
0.66 0.48 0.21 0.10 0.08 0.10 0.09 0.08 0.07 0.08 0.09 0.12 0.13 0.12 0.15 0.25 0.33 0.35 0.36 0.43 0.47 0.55 0.56 0.56 0.66 0.74 0.86 0.94 0.90 0.95 1.03 1.03 0.97 0.90 0.87 0.84 0.88 0.84 0.72 0.64 0.57 0.61 0.60 0.63 0.65 0.67 0.62 0.60 0.59
0.60 0.40 0.27 0.16 0.12 0.14 0.15 0.12 0.10 0.10 0.10 0.11 0.17 0.18 0.19 0.26 0.32 0.37 0.42 0.49 0.58 0.63 0.63 0.64 0.71 0.85 0.96 1.00 0.95 0.95 0.95 0.97 0.96 0.97 0.98 0.99 0.95 0.84 0.71 0.64 0.55 0.53 0.53 0.57 0.62 0.64 0.59 0.61 0.64
0.56 0.37 0.27 0.21 0.17 0.17 0.19 0.18 0.15 0.13 0.10 0.12 0.21 0.26 0.29 0.30 0.38 0.42 0.49 0.57 0.60 0.65 0.69 0.72 0.75 0.85 1.02 1.12 1.03 0.98 0.96 0.90 0.94 1.02 1.04 0.98 0.94 0.84 0.75 0.69 0.64 0.57 0.51 0.53 0.58 0.63 0.62 0.61 0.64
0.52 0.41 0.32 0.27 0.25 0.23 0.25 0.23 0.19 0.17 0.14 0.16 0.25 0.30 0.36 0.39 0.45 0.48 0.53 0.55 0.59 0.66 0.74 0.82 0.85 0.89 1.01 1.09 1.05 0.98 0.99 1.02 1.02 0.99 1.00 1.02 0.99 0.92 0.87 0.82 0.78 0.71 0.63 0.61 0.64 0.69 0.70 0.65 0.62
0.51 0.56 0.48 0.36 0.32 0.32 0.34 0.36 0.24 0.17 0.17 0.24 0.28 0.32 0.38 0.44 0.49 0.53 0.56 0.58 0.59 0.69 0.79 0.88 0.97 0.99 1.04 1.08 1.12 1.10 1.04 1.04 1.01 0.94 0.95 0.99 1.03 0.99 0.88 0.84 0.82 0.80 0.78 0.75 0.71 0.68 0.75 0.71 0.64
0.76 0.86 0.73 0.42 0.33 0.38 0.49 0.47 0.23 0.20 0.22 0.28 0.31 0.36 0.39 0.41 0.47 0.55 0.62 0.71 0.77 0.85 0.91 0.96 1.06 1.07 1.08 1.11 1.19 1.22 1.19 1.14 1.04 0.97 0.96 0.95 1.00 1.07 1.04 0.94 0.88 0.88 0.91 0.90 0.86 0.75 0.72 0.72 0.69
1.10 0.99 0.63 0.38 0.32 0.41 0.52 0.46 0.26 0.24 0.27 0.31 0.33 0.39 0.42 0.46 0.50 0.54 0.62 0.72 0.82 0.91 0.99 1.07 1.12 1.13 1.12 1.14 1.26 1.32 1.31 1.23 1.16 1.09 0.99 0.98 1.03 1.05 1.06 1.02 1.00 1.04 1.05 1.01 0.99 0.90 0.85 0.80 0.77
0.88 0.67 0.50 0.39 0.34 0.39 0.43 0.35 0.27 0.27 0.30 0.30 0.32 0.36 0.40 0.44 0.47 0.54 0.65 0.78 0.91 1.00 1.05 1.14 1.22 1.29 1.32 1.38 1.41 1.49 1.45 1.35 1.29 1.21 1.10 0.98 1.00 1.06 1.11 1.05 1.04 1.08 1.10 1.10 1.15 1.13 1.02 0.93 0.91
0.61 0.57 0.49 0.38 0.33 0.41 0.42 0.33 0.30 0.30 0.31 0.30 0.34 0.34 0.38 0.41 0.43 0.49 0.63 0.77 0.94 1.03 1.12 1.19 1.26 1.34 1.40 1.43 1.35 1.36 1.36 1.34 1.33 1.28 1.21 1.16 1.10 1.08 1.15 1.12 1.07 1.08 1.05 0.99 0.98 1.10 1.14 1.08 1.03
0.77 0.75 0.54 0.41 0.35 0.43 0.43 0.35 0.32 0.35 0.34 0.32 0.33 0.35 0.39 0.39 0.42 0.49 0.58 0.72 0.93 1.03 1.12 1.21 1.22 1.29 1.33 1.29 1.32 1.32 1.38 1.43 1.46 1.42 1.37 1.24 1.15 1.11 1.13 1.16 1.12 1.03 1.01 0.98 0.90 0.91 1.02 1.04 1.03
0.84 0.68 0.51 0.51 0.51 0.54 0.54 0.47 0.33 0.36 0.36 0.32 0.29 0.32 0.37 0.38 0.40 0.45 0.54 0.67 0.81 0.93 1.04 1.20 1.17 1.16 1.31 1.39 1.57 1.65 1.71 1.74 1.72 1.58 1.46 1.29 1.15 1.07 1.05 1.13 1.19 1.12 1.02 0.94 0.89 0.88 0.89 0.95 0.95
0.82 0.48 0.50 0.61 0.86 0.97 0.76 0.79 0.38 0.37 0.41 0.35 0.32 0.33 0.33 0.35 0.38 0.44 0.49 0.61 0.74 0.80 0.97 1.12 1.16 1.14 1.29 1.47 1.53 1.53 1.51 1.51 1.43 1.40 1.37 1.32 1.22 1.14 1.10 1.14 1.19 1.22 1.11 0.97 0.93 0.91 0.89 0.91 0.95
0.64 0.51 0.65 0.80 1.02 1.17 0.84 0.87 0.50 0.38 0.45 0.41 0.35 0.35 0.31 0.28 0.31 0.41 0.48 0.56 0.68 0.80 0.98 1.10 1.12 1.20 1.32 1.44 1.51 1.52 1.49 1.43 1.47 1.51 1.48 1.48 1.34 1.24 1.18 1.19 1.19 1.20 1.15 1.05 0.99 0.96 0.95 0.92 0.92
0.67 0.81 0.97 1.15 1.63 1.79 0.76 0.67 0.55 0.42 0.42 0.39 0.35 0.37 0.31 0.27 0.28 0.37 0.49 0.56 0.67 0.82 0.96 1.13 1.21 1.25 1.34 1.47 1.58 1.56 1.51 1.54 1.60 1.58 1.62 1.64 1.57 1.44 1.30 1.24 1.19 1.16 1.12 1.08 1.04 1.02 1.00 0.97 0.92
1.07 1.57 2.30 2.41 2.41 1.43 0.42 0.44 0.47 0.32 0.29 0.30 0.32 0.36 0.32 0.28 0.30 0.38 0.48 0.60 0.70 0.79 0.89 1.09 1.26 1.25 1.24 1.37 1.51 1.52 1.53 1.63 1.63 1.64 1.62 1.67 1.64 1.49 1.37 1.24 1.17 1.15 1.13 1.08 1.06 1.08 1.08 1.08 1.07
1.07 1.36 1.84 1.72 1.12 0.56 0.35 0.44 0.39 0.24 0.20 0.21 0.23 0.29 0.27 0.30 0.33 0.39 0.45 0.57 0.69 0.77 0.85 1.00 1.20 1.23 1.19 1.23 1.34 1.45 1.51 1.66 1.75 1.81 1.77 1.71 1.66 1.55 1.44 1.40 1.34 1.24 1.18 1.18 1.16 1.11 1.09 1.10 1.10
0.94 1.01 0.93 1.27 0.91 0.56 0.43 0.35 0.28 0.17 0.17 0.18 0.21 0.25 0.24 0.26 0.31 0.39 0.42 0.51 0.66 0.78 0.81 0.84 1.08 1.17 1.17 1.21 1.26 1.37 1.44 1.50 1.55 1.68 1.79 1.77 1.69 1.60 1.55 1.46 1.43 1.38 1.34 1.35 1.35 1.27 1.16 1.14 1.10
0.77 0.94 1.19 1.73 1.48 0.78 0.41 0.29 0.29 0.24 0.22 0.19 0.20 0.24 0.26 0.29 0.32 0.40 0.43 0.49 0.60 0.75 0.80 0.76 0.95 1.09 1.08 1.14 1.23 1.28 1.37 1.44 1.45 1.51 1.56 1.61 1.67 1.64 1.61 1.56 1.46 1.37 1.34 1.37 1.46 1.42 1.27 1.22 1.17
0.85 1.13 1.47 1.60 1.23 0.90 0.57 0.41 0.34 0.31 0.27 0.24 0.24 0.26 0.28 0.34 0.39 0.46 0.49 0.54 0.60 0.72 0.77 0.78 0.84 1.05 1.12 1.11 1.15 1.20 1.28 1.39 1.47 1.51 1.46 1.41 1.51 1.64 1.62 1.55 1.49 1.41 1.38 1.38 1.41 1.40 1.40 1.37 1.29
0.78 0.94 1.16 1.58 1.23 0.75 0.64 0.44 0.27 0.28 0.27 0.25 0.28 0.27 0.28 0.31 0.36 0.41 0.48 0.56 0.66 0.79 0.83 0.80 0.84 0.98 1.15 1.19 1.13 1.16 1.23 1.33 1.43 1.45 1.41 1.40 1.34 1.38 1.51 1.58 1.57 1.50 1.41 1.42 1.48 1.45 1.44 1.45 1.41